<?xml version="1.0" encoding="UTF-8" standalone="no" ?>
<gpx xmlns="http://www.topografix.com/GPX/1/1" xmlns:xsi="http://www.w3.org/2001/XMLSchema-instance" xsi:schemaLocation="http://www.topografix.com/GPX/1/1 http://www.topografix.com/GPX/1/1/gpx.xsd" version="1.1" creator="VisuGPX - https://www.visugpx.com">
  <metadata>
    <name>Mont aspremont</name>
    <desc><![CDATA[mont aspremont chauve et cima]]></desc>
  </metadata>
  <trk>
    <name><![CDATA[Vtopo 06 experts n°9 / les monts d'aspremont]]></name>
    <trkseg>
      <trkpt lat="43.78439" lon="7.24338">
        <ele>498</ele>
        <time>2009-01-23T09:31:48Z</time>
      </trkpt>
      <trkpt lat="43.78471" lon="7.24384">
        <ele>501</ele>
        <time>2009-01-23T09:31:48Z</time>
      </trkpt>
      <trkpt lat="43.78543" lon="7.24394">
        <ele>511</ele>
        <time>2009-01-23T09:31:48Z</time>
      </trkpt>
      <trkpt lat="43.78602" lon="7.24424">
        <ele>530</ele>
        <time>2009-01-23T09:31:48Z</time>
      </trkpt>
      <trkpt lat="43.78668" lon="7.24408">
        <ele>543</ele>
        <time>2009-01-23T09:31:48Z</time>
      </trkpt>
      <trkpt lat="43.78727" lon="7.24406">
        <ele>542</ele>
        <time>2009-01-23T09:31:48Z</time>
      </trkpt>
      <trkpt lat="43.78763" lon="7.24447">
        <ele>547</ele>
        <time>2009-01-23T09:31:48Z</time>
      </trkpt>
      <trkpt lat="43.78787" lon="7.24511">
        <ele>562</ele>
        <time>2009-01-23T09:31:48Z</time>
      </trkpt>
      <trkpt lat="43.78827" lon="7.24518">
        <ele>562</ele>
        <time>2009-01-23T09:31:48Z</time>
      </trkpt>
      <trkpt lat="43.78852" lon="7.24563">
        <ele>574</ele>
        <time>2009-01-23T09:31:48Z</time>
      </trkpt>
      <trkpt lat="43.78815" lon="7.24597">
        <ele>577</ele>
        <time>2009-01-23T09:31:48Z</time>
      </trkpt>
      <trkpt lat="43.78817" lon="7.24595">
        <ele>577</ele>
        <time>2009-01-23T09:31:48Z</time>
      </trkpt>
      <trkpt lat="43.78864" lon="7.24651">
        <ele>590</ele>
        <time>2009-01-23T09:31:48Z</time>
      </trkpt>
      <trkpt lat="43.78932" lon="7.24636">
        <ele>587</ele>
        <time>2009-01-23T09:31:48Z</time>
      </trkpt>
      <trkpt lat="43.7897" lon="7.24698">
        <ele>607</ele>
        <time>2009-01-23T09:31:48Z</time>
      </trkpt>
      <trkpt lat="43.79075" lon="7.24673">
        <ele>620</ele>
        <time>2009-01-23T09:31:48Z</time>
      </trkpt>
      <trkpt lat="43.7921" lon="7.24619">
        <ele>630</ele>
        <time>2009-01-23T09:31:48Z</time>
      </trkpt>
      <trkpt lat="43.79337" lon="7.24447">
        <ele>637</ele>
        <time>2009-01-23T09:31:48Z</time>
      </trkpt>
      <trkpt lat="43.79487" lon="7.24329">
        <ele>655</ele>
        <time>2009-01-23T09:31:48Z</time>
      </trkpt>
      <trkpt lat="43.79545" lon="7.24244">
        <ele>659</ele>
        <time>2009-01-23T09:31:48Z</time>
      </trkpt>
      <trkpt lat="43.79587" lon="7.24148">
        <ele>664</ele>
        <time>2009-01-23T09:31:48Z</time>
      </trkpt>
      <trkpt lat="43.79556" lon="7.24301">
        <ele>680</ele>
        <time>2009-01-23T09:31:48Z</time>
      </trkpt>
      <trkpt lat="43.794" lon="7.24552">
        <ele>704</ele>
        <time>2009-01-23T09:31:48Z</time>
      </trkpt>
      <trkpt lat="43.79357" lon="7.24619">
        <ele>700</ele>
        <time>2009-01-23T09:31:48Z</time>
      </trkpt>
      <trkpt lat="43.79329" lon="7.2472">
        <ele>690</ele>
        <time>2009-01-23T09:31:48Z</time>
      </trkpt>
      <trkpt lat="43.79333" lon="7.24785">
        <ele>680</ele>
        <time>2009-01-23T09:31:48Z</time>
      </trkpt>
      <trkpt lat="43.79383" lon="7.24622">
        <ele>715</ele>
        <time>2009-01-23T09:31:48Z</time>
      </trkpt>
      <trkpt lat="43.79494" lon="7.24507">
        <ele>732</ele>
        <time>2009-01-23T09:31:48Z</time>
      </trkpt>
      <trkpt lat="43.79672" lon="7.24317">
        <ele>737</ele>
        <time>2009-01-23T09:31:48Z</time>
      </trkpt>
      <trkpt lat="43.79734" lon="7.24183">
        <ele>732</ele>
        <time>2009-01-23T09:31:48Z</time>
      </trkpt>
      <trkpt lat="43.79793" lon="7.24135">
        <ele>741</ele>
        <time>2009-01-23T09:31:48Z</time>
      </trkpt>
      <trkpt lat="43.79812" lon="7.24099">
        <ele>736</ele>
        <time>2009-01-23T09:31:48Z</time>
      </trkpt>
      <trkpt lat="43.7987" lon="7.24067">
        <ele>737</ele>
        <time>2009-01-23T09:31:48Z</time>
      </trkpt>
      <trkpt lat="43.7993" lon="7.24088">
        <ele>743</ele>
        <time>2009-01-23T09:31:48Z</time>
      </trkpt>
      <trkpt lat="43.79963" lon="7.24196">
        <ele>747</ele>
        <time>2009-01-23T09:31:48Z</time>
      </trkpt>
      <trkpt lat="43.79996" lon="7.24218">
        <ele>740</ele>
        <time>2009-01-23T09:31:48Z</time>
      </trkpt>
      <trkpt lat="43.80051" lon="7.24449">
        <ele>732</ele>
        <time>2009-01-23T09:31:48Z</time>
      </trkpt>
      <trkpt lat="43.80061" lon="7.24469">
        <ele>732</ele>
        <time>2009-01-23T09:31:48Z</time>
      </trkpt>
      <trkpt lat="43.8011" lon="7.24492">
        <ele>734</ele>
        <time>2009-01-23T09:31:48Z</time>
      </trkpt>
      <trkpt lat="43.80167" lon="7.2458">
        <ele>764</ele>
        <time>2009-01-23T09:31:48Z</time>
      </trkpt>
      <trkpt lat="43.80372" lon="7.24511">
        <ele>787</ele>
        <time>2009-01-23T09:31:48Z</time>
      </trkpt>
      <trkpt lat="43.80524" lon="7.24493">
        <ele>792</ele>
        <time>2009-01-23T09:31:48Z</time>
      </trkpt>
      <trkpt lat="43.80585" lon="7.24495">
        <ele>796</ele>
        <time>2009-01-23T09:31:48Z</time>
      </trkpt>
      <trkpt lat="43.80799" lon="7.24489">
        <ele>783</ele>
        <time>2009-01-23T09:31:48Z</time>
      </trkpt>
      <trkpt lat="43.80818" lon="7.24562">
        <ele>798</ele>
        <time>2009-01-23T09:31:48Z</time>
      </trkpt>
      <trkpt lat="43.80888" lon="7.24521">
        <ele>774</ele>
        <time>2009-01-23T09:31:48Z</time>
      </trkpt>
      <trkpt lat="43.80923" lon="7.24525">
        <ele>759</ele>
        <time>2009-01-23T09:31:48Z</time>
      </trkpt>
      <trkpt lat="43.80967" lon="7.24416">
        <ele>747</ele>
        <time>2009-01-23T09:31:48Z</time>
      </trkpt>
      <trkpt lat="43.81005" lon="7.24314">
        <ele>727</ele>
        <time>2009-01-23T09:31:48Z</time>
      </trkpt>
      <trkpt lat="43.81133" lon="7.24123">
        <ele>697</ele>
        <time>2009-01-23T09:31:48Z</time>
      </trkpt>
      <trkpt lat="43.81333" lon="7.2414">
        <ele>627</ele>
        <time>2009-01-23T09:31:48Z</time>
      </trkpt>
      <trkpt lat="43.81406" lon="7.24209">
        <ele>582</ele>
        <time>2009-01-23T09:31:48Z</time>
      </trkpt>
      <trkpt lat="43.8148" lon="7.24321">
        <ele>544</ele>
        <time>2009-01-23T09:31:48Z</time>
      </trkpt>
      <trkpt lat="43.8148" lon="7.24178">
        <ele>547</ele>
        <time>2009-01-23T09:31:48Z</time>
      </trkpt>
      <trkpt lat="43.81484" lon="7.24085">
        <ele>538</ele>
        <time>2009-01-23T09:31:48Z</time>
      </trkpt>
      <trkpt lat="43.81495" lon="7.24036">
        <ele>531</ele>
        <time>2009-01-23T09:31:48Z</time>
      </trkpt>
      <trkpt lat="43.81461" lon="7.23993">
        <ele>546</ele>
        <time>2009-01-23T09:31:48Z</time>
      </trkpt>
      <trkpt lat="43.81406" lon="7.23916">
        <ele>538</ele>
        <time>2009-01-23T09:31:48Z</time>
      </trkpt>
      <trkpt lat="43.81379" lon="7.23902">
        <ele>542</ele>
        <time>2009-01-23T09:31:48Z</time>
      </trkpt>
      <trkpt lat="43.81383" lon="7.23874">
        <ele>530</ele>
        <time>2009-01-23T09:31:48Z</time>
      </trkpt>
      <trkpt lat="43.81436" lon="7.23838">
        <ele>510</ele>
        <time>2009-01-23T09:31:48Z</time>
      </trkpt>
      <trkpt lat="43.81478" lon="7.23808">
        <ele>494</ele>
        <time>2009-01-23T09:31:48Z</time>
      </trkpt>
      <trkpt lat="43.81463" lon="7.2384">
        <ele>497</ele>
        <time>2009-01-23T09:31:48Z</time>
      </trkpt>
      <trkpt lat="43.81421" lon="7.2389">
        <ele>521</ele>
        <time>2009-01-23T09:31:48Z</time>
      </trkpt>
      <trkpt lat="43.81543" lon="7.24031">
        <ele>502</ele>
        <time>2009-01-23T09:31:48Z</time>
      </trkpt>
      <trkpt lat="43.81545" lon="7.24174">
        <ele>531</ele>
        <time>2009-01-23T09:31:48Z</time>
      </trkpt>
      <trkpt lat="43.81603" lon="7.24198">
        <ele>527</ele>
        <time>2009-01-23T09:31:48Z</time>
      </trkpt>
      <trkpt lat="43.81652" lon="7.24196">
        <ele>514</ele>
        <time>2009-01-23T09:31:48Z</time>
      </trkpt>
      <trkpt lat="43.81671" lon="7.24222">
        <ele>510</ele>
        <time>2009-01-23T09:31:48Z</time>
      </trkpt>
      <trkpt lat="43.81684" lon="7.2423">
        <ele>507</ele>
        <time>2009-01-23T09:31:48Z</time>
      </trkpt>
      <trkpt lat="43.81683" lon="7.24264">
        <ele>506</ele>
        <time>2009-01-23T09:31:48Z</time>
      </trkpt>
      <trkpt lat="43.81712" lon="7.2426">
        <ele>494</ele>
        <time>2009-01-23T09:31:48Z</time>
      </trkpt>
      <trkpt lat="43.81713" lon="7.24288">
        <ele>482</ele>
        <time>2009-01-23T09:31:48Z</time>
      </trkpt>
      <trkpt lat="43.81725" lon="7.24283">
        <ele>479</ele>
        <time>2009-01-23T09:31:48Z</time>
      </trkpt>
      <trkpt lat="43.81663" lon="7.24364">
        <ele>468</ele>
        <time>2009-01-23T09:31:48Z</time>
      </trkpt>
      <trkpt lat="43.81666" lon="7.24383">
        <ele>459</ele>
        <time>2009-01-23T09:31:48Z</time>
      </trkpt>
      <trkpt lat="43.81631" lon="7.24374">
        <ele>476</ele>
        <time>2009-01-23T09:31:48Z</time>
      </trkpt>
      <trkpt lat="43.81572" lon="7.24425">
        <ele>477</ele>
        <time>2009-01-23T09:31:48Z</time>
      </trkpt>
      <trkpt lat="43.8158" lon="7.24438">
        <ele>469</ele>
        <time>2009-01-23T09:31:48Z</time>
      </trkpt>
      <trkpt lat="43.81596" lon="7.24446">
        <ele>461</ele>
        <time>2009-01-23T09:31:48Z</time>
      </trkpt>
      <trkpt lat="43.81595" lon="7.24467">
        <ele>453</ele>
        <time>2009-01-23T09:31:48Z</time>
      </trkpt>
      <trkpt lat="43.81617" lon="7.24473">
        <ele>444</ele>
        <time>2009-01-23T09:31:48Z</time>
      </trkpt>
      <trkpt lat="43.81598" lon="7.24505">
        <ele>438</ele>
        <time>2009-01-23T09:31:48Z</time>
      </trkpt>
      <trkpt lat="43.81606" lon="7.24527">
        <ele>428</ele>
        <time>2009-01-23T09:31:48Z</time>
      </trkpt>
      <trkpt lat="43.81504" lon="7.24684">
        <ele>435</ele>
        <time>2009-01-23T09:31:48Z</time>
      </trkpt>
      <trkpt lat="43.81524" lon="7.24747">
        <ele>448</ele>
        <time>2009-01-23T09:31:48Z</time>
      </trkpt>
      <trkpt lat="43.81532" lon="7.24754">
        <ele>448</ele>
        <time>2009-01-23T09:31:48Z</time>
      </trkpt>
      <trkpt lat="43.81509" lon="7.24771">
        <ele>457</ele>
        <time>2009-01-23T09:31:48Z</time>
      </trkpt>
      <trkpt lat="43.8151" lon="7.24805">
        <ele>470</ele>
        <time>2009-01-23T09:31:48Z</time>
      </trkpt>
      <trkpt lat="43.81483" lon="7.24803">
        <ele>473</ele>
        <time>2009-01-23T09:31:48Z</time>
      </trkpt>
      <trkpt lat="43.81483" lon="7.2484">
        <ele>487</ele>
        <time>2009-01-23T09:31:48Z</time>
      </trkpt>
      <trkpt lat="43.81451" lon="7.24853">
        <ele>489</ele>
        <time>2009-01-23T09:31:48Z</time>
      </trkpt>
      <trkpt lat="43.81468" lon="7.24879">
        <ele>501</ele>
        <time>2009-01-23T09:31:48Z</time>
      </trkpt>
      <trkpt lat="43.81463" lon="7.24932">
        <ele>514</ele>
        <time>2009-01-23T09:31:48Z</time>
      </trkpt>
      <trkpt lat="43.81439" lon="7.24936">
        <ele>510</ele>
        <time>2009-01-23T09:31:48Z</time>
      </trkpt>
      <trkpt lat="43.8143" lon="7.24985">
        <ele>521</ele>
        <time>2009-01-23T09:31:48Z</time>
      </trkpt>
      <trkpt lat="43.81393" lon="7.24994">
        <ele>520</ele>
        <time>2009-01-23T09:31:48Z</time>
      </trkpt>
      <trkpt lat="43.81394" lon="7.24979">
        <ele>515</ele>
        <time>2009-01-23T09:31:48Z</time>
      </trkpt>
      <trkpt lat="43.81377" lon="7.24993">
        <ele>518</ele>
        <time>2009-01-23T09:31:48Z</time>
      </trkpt>
      <trkpt lat="43.81362" lon="7.24976">
        <ele>515</ele>
        <time>2009-01-23T09:31:48Z</time>
      </trkpt>
      <trkpt lat="43.81339" lon="7.2499">
        <ele>521</ele>
        <time>2009-01-23T09:31:48Z</time>
      </trkpt>
      <trkpt lat="43.8131" lon="7.2495">
        <ele>519</ele>
        <time>2009-01-23T09:31:48Z</time>
      </trkpt>
      <trkpt lat="43.81337" lon="7.24893">
        <ele>505</ele>
        <time>2009-01-23T09:31:48Z</time>
      </trkpt>
      <trkpt lat="43.81274" lon="7.24897">
        <ele>523</ele>
        <time>2009-01-23T09:31:48Z</time>
      </trkpt>
      <trkpt lat="43.81233" lon="7.2489">
        <ele>534</ele>
        <time>2009-01-23T09:31:48Z</time>
      </trkpt>
      <trkpt lat="43.81225" lon="7.24837">
        <ele>527</ele>
        <time>2009-01-23T09:31:48Z</time>
      </trkpt>
      <trkpt lat="43.81236" lon="7.24791">
        <ele>519</ele>
        <time>2009-01-23T09:31:48Z</time>
      </trkpt>
      <trkpt lat="43.81231" lon="7.24784">
        <ele>521</ele>
        <time>2009-01-23T09:31:48Z</time>
      </trkpt>
      <trkpt lat="43.81204" lon="7.24835">
        <ele>534</ele>
        <time>2009-01-23T09:31:48Z</time>
      </trkpt>
      <trkpt lat="43.81204" lon="7.24891">
        <ele>545</ele>
        <time>2009-01-23T09:31:48Z</time>
      </trkpt>
      <trkpt lat="43.81231" lon="7.24937">
        <ele>546</ele>
        <time>2009-01-23T09:31:48Z</time>
      </trkpt>
      <trkpt lat="43.81232" lon="7.24968">
        <ele>553</ele>
        <time>2009-01-23T09:31:48Z</time>
      </trkpt>
      <trkpt lat="43.81267" lon="7.25002">
        <ele>545</ele>
        <time>2009-01-23T09:31:48Z</time>
      </trkpt>
      <trkpt lat="43.81262" lon="7.2511">
        <ele>580</ele>
        <time>2009-01-23T09:31:48Z</time>
      </trkpt>
      <trkpt lat="43.81331" lon="7.25126">
        <ele>566</ele>
        <time>2009-01-23T09:31:48Z</time>
      </trkpt>
      <trkpt lat="43.81346" lon="7.25198">
        <ele>599</ele>
        <time>2009-01-23T09:31:48Z</time>
      </trkpt>
      <trkpt lat="43.81469" lon="7.25159">
        <ele>590</ele>
        <time>2009-01-23T09:31:48Z</time>
      </trkpt>
      <trkpt lat="43.81605" lon="7.25243">
        <ele>593</ele>
        <time>2009-01-23T09:31:48Z</time>
      </trkpt>
      <trkpt lat="43.81657" lon="7.25337">
        <ele>597</ele>
        <time>2009-01-23T09:31:48Z</time>
      </trkpt>
      <trkpt lat="43.81707" lon="7.25469">
        <ele>599</ele>
        <time>2009-01-23T09:31:48Z</time>
      </trkpt>
      <trkpt lat="43.81556" lon="7.25335">
        <ele>629</ele>
        <time>2009-01-23T09:31:48Z</time>
      </trkpt>
      <trkpt lat="43.81427" lon="7.25395">
        <ele>652</ele>
        <time>2009-01-23T09:31:48Z</time>
      </trkpt>
      <trkpt lat="43.8129" lon="7.25374">
        <ele>653</ele>
        <time>2009-01-23T09:31:48Z</time>
      </trkpt>
      <trkpt lat="43.81214" lon="7.25321">
        <ele>675</ele>
        <time>2009-01-23T09:31:48Z</time>
      </trkpt>
      <trkpt lat="43.8109" lon="7.2527">
        <ele>688</ele>
        <time>2009-01-23T09:31:48Z</time>
      </trkpt>
      <trkpt lat="43.81071" lon="7.25246">
        <ele>691</ele>
        <time>2009-01-23T09:31:48Z</time>
      </trkpt>
      <trkpt lat="43.81011" lon="7.2517">
        <ele>712</ele>
        <time>2009-01-23T09:31:48Z</time>
      </trkpt>
      <trkpt lat="43.80945" lon="7.25099">
        <ele>717</ele>
        <time>2009-01-23T09:31:48Z</time>
      </trkpt>
      <trkpt lat="43.80832" lon="7.25042">
        <ele>725</ele>
        <time>2009-01-23T09:31:48Z</time>
      </trkpt>
      <trkpt lat="43.80771" lon="7.25118">
        <ele>727</ele>
        <time>2009-01-23T09:31:48Z</time>
      </trkpt>
      <trkpt lat="43.80665" lon="7.25109">
        <ele>717</ele>
        <time>2009-01-23T09:31:48Z</time>
      </trkpt>
      <trkpt lat="43.80483" lon="7.25143">
        <ele>710</ele>
        <time>2009-01-23T09:31:48Z</time>
      </trkpt>
      <trkpt lat="43.80322" lon="7.25175">
        <ele>702</ele>
        <time>2009-01-23T09:31:48Z</time>
      </trkpt>
      <trkpt lat="43.80257" lon="7.2512">
        <ele>713</ele>
        <time>2009-01-23T09:31:48Z</time>
      </trkpt>
      <trkpt lat="43.80166" lon="7.24988">
        <ele>716</ele>
        <time>2009-01-23T09:31:48Z</time>
      </trkpt>
      <trkpt lat="43.8013" lon="7.24982">
        <ele>704</ele>
        <time>2009-01-23T09:31:48Z</time>
      </trkpt>
      <trkpt lat="43.80071" lon="7.24855">
        <ele>705</ele>
        <time>2009-01-23T09:31:48Z</time>
      </trkpt>
      <trkpt lat="43.80076" lon="7.24793">
        <ele>716</ele>
        <time>2009-01-23T09:31:48Z</time>
      </trkpt>
      <trkpt lat="43.80039" lon="7.2466">
        <ele>697</ele>
        <time>2009-01-23T09:31:48Z</time>
      </trkpt>
      <trkpt lat="43.79869" lon="7.24729">
        <ele>680</ele>
        <time>2009-01-23T09:31:48Z</time>
      </trkpt>
      <trkpt lat="43.79801" lon="7.24757">
        <ele>689</ele>
        <time>2009-01-23T09:31:48Z</time>
      </trkpt>
      <trkpt lat="43.79773" lon="7.24773">
        <ele>688</ele>
        <time>2009-01-23T09:31:48Z</time>
      </trkpt>
      <trkpt lat="43.79712" lon="7.24815">
        <ele>685</ele>
        <time>2009-01-23T09:31:48Z</time>
      </trkpt>
      <trkpt lat="43.79625" lon="7.24904">
        <ele>670</ele>
        <time>2009-01-23T09:31:48Z</time>
      </trkpt>
      <trkpt lat="43.79442" lon="7.24872">
        <ele>667</ele>
        <time>2009-01-23T09:31:48Z</time>
      </trkpt>
      <trkpt lat="43.79367" lon="7.24825">
        <ele>672</ele>
        <time>2009-01-23T09:31:48Z</time>
      </trkpt>
      <trkpt lat="43.79318" lon="7.24827">
        <ele>665</ele>
        <time>2009-01-23T09:31:48Z</time>
      </trkpt>
      <trkpt lat="43.79294" lon="7.24813">
        <ele>667</ele>
        <time>2009-01-23T09:31:48Z</time>
      </trkpt>
      <trkpt lat="43.7921" lon="7.24821">
        <ele>664</ele>
        <time>2009-01-23T09:31:48Z</time>
      </trkpt>
      <trkpt lat="43.79165" lon="7.2483">
        <ele>669</ele>
        <time>2009-01-23T09:31:48Z</time>
      </trkpt>
      <trkpt lat="43.79163" lon="7.2487">
        <ele>664</ele>
        <time>2009-01-23T09:31:48Z</time>
      </trkpt>
      <trkpt lat="43.79187" lon="7.24881">
        <ele>656</ele>
        <time>2009-01-23T09:31:48Z</time>
      </trkpt>
      <trkpt lat="43.7926" lon="7.2495">
        <ele>616</ele>
        <time>2009-01-23T09:31:48Z</time>
      </trkpt>
      <trkpt lat="43.79267" lon="7.24994">
        <ele>601</ele>
        <time>2009-01-23T09:31:48Z</time>
      </trkpt>
      <trkpt lat="43.7919" lon="7.25068">
        <ele>595</ele>
        <time>2009-01-23T09:31:48Z</time>
      </trkpt>
      <trkpt lat="43.79106" lon="7.25229">
        <ele>565</ele>
        <time>2009-01-23T09:31:48Z</time>
      </trkpt>
      <trkpt lat="43.79186" lon="7.25155">
        <ele>563</ele>
        <time>2009-01-23T09:31:48Z</time>
      </trkpt>
      <trkpt lat="43.79252" lon="7.25136">
        <ele>552</ele>
        <time>2009-01-23T09:31:48Z</time>
      </trkpt>
      <trkpt lat="43.79293" lon="7.2513">
        <ele>542</ele>
        <time>2009-01-23T09:31:48Z</time>
      </trkpt>
      <trkpt lat="43.79324" lon="7.25083">
        <ele>563</ele>
        <time>2009-01-23T09:31:48Z</time>
      </trkpt>
      <trkpt lat="43.79385" lon="7.25094">
        <ele>576</ele>
        <time>2009-01-23T09:31:48Z</time>
      </trkpt>
      <trkpt lat="43.79425" lon="7.25247">
        <ele>551</ele>
        <time>2009-01-23T09:31:48Z</time>
      </trkpt>
      <trkpt lat="43.79392" lon="7.25427">
        <ele>515</ele>
        <time>2009-01-23T09:31:48Z</time>
      </trkpt>
      <trkpt lat="43.79426" lon="7.25471">
        <ele>498</ele>
        <time>2009-01-23T09:31:48Z</time>
      </trkpt>
      <trkpt lat="43.79493" lon="7.25424">
        <ele>501</ele>
        <time>2009-01-23T09:31:48Z</time>
      </trkpt>
      <trkpt lat="43.79504" lon="7.25481">
        <ele>488</ele>
        <time>2009-01-23T09:31:48Z</time>
      </trkpt>
      <trkpt lat="43.79502" lon="7.25527">
        <ele>476</ele>
        <time>2009-01-23T09:31:48Z</time>
      </trkpt>
      <trkpt lat="43.79438" lon="7.25559">
        <ele>456</ele>
        <time>2009-01-23T09:31:48Z</time>
      </trkpt>
      <trkpt lat="43.79317" lon="7.25483">
        <ele>478</ele>
        <time>2009-01-23T09:31:48Z</time>
      </trkpt>
      <trkpt lat="43.79303" lon="7.25305">
        <ele>507</ele>
        <time>2009-01-23T09:31:48Z</time>
      </trkpt>
      <trkpt lat="43.79253" lon="7.2531">
        <ele>484</ele>
        <time>2009-01-23T09:31:48Z</time>
      </trkpt>
      <trkpt lat="43.79086" lon="7.25376">
        <ele>486</ele>
        <time>2009-01-23T09:31:48Z</time>
      </trkpt>
      <trkpt lat="43.78961" lon="7.2535">
        <ele>499</ele>
        <time>2009-01-23T09:31:48Z</time>
      </trkpt>
      <trkpt lat="43.78896" lon="7.25242">
        <ele>508</ele>
        <time>2009-01-23T09:31:48Z</time>
      </trkpt>
      <trkpt lat="43.78773" lon="7.25212">
        <ele>499</ele>
        <time>2009-01-23T09:31:48Z</time>
      </trkpt>
      <trkpt lat="43.78683" lon="7.25264">
        <ele>494</ele>
        <time>2009-01-23T09:31:48Z</time>
      </trkpt>
      <trkpt lat="43.78505" lon="7.25264">
        <ele>503</ele>
        <time>2009-01-23T09:31:48Z</time>
      </trkpt>
      <trkpt lat="43.78284" lon="7.25391">
        <ele>500</ele>
        <time>2009-01-23T09:31:48Z</time>
      </trkpt>
      <trkpt lat="43.78227" lon="7.25401">
        <ele>510</ele>
        <time>2009-01-23T09:31:48Z</time>
      </trkpt>
      <trkpt lat="43.78233" lon="7.25455">
        <ele>482</ele>
        <time>2009-01-23T09:31:48Z</time>
      </trkpt>
      <trkpt lat="43.78174" lon="7.2553">
        <ele>483</ele>
        <time>2009-01-23T09:31:48Z</time>
      </trkpt>
      <trkpt lat="43.78159" lon="7.25601">
        <ele>488</ele>
        <time>2009-01-23T09:31:48Z</time>
      </trkpt>
      <trkpt lat="43.78208" lon="7.25773">
        <ele>490</ele>
        <time>2009-01-23T09:31:48Z</time>
      </trkpt>
      <trkpt lat="43.78257" lon="7.25827">
        <ele>475</ele>
        <time>2009-01-23T09:31:48Z</time>
      </trkpt>
      <trkpt lat="43.78314" lon="7.2581">
        <ele>450</ele>
        <time>2009-01-23T09:31:48Z</time>
      </trkpt>
      <trkpt lat="43.78362" lon="7.25889">
        <ele>435</ele>
        <time>2009-01-23T09:31:48Z</time>
      </trkpt>
      <trkpt lat="43.78384" lon="7.25906">
        <ele>426</ele>
        <time>2009-01-23T09:31:48Z</time>
      </trkpt>
      <trkpt lat="43.78343" lon="7.25955">
        <ele>430</ele>
        <time>2009-01-23T09:31:48Z</time>
      </trkpt>
      <trkpt lat="43.78398" lon="7.26202">
        <ele>418</ele>
        <time>2009-01-23T09:31:48Z</time>
      </trkpt>
      <trkpt lat="43.7846" lon="7.26223">
        <ele>399</ele>
        <time>2009-01-23T09:31:48Z</time>
      </trkpt>
      <trkpt lat="43.78468" lon="7.26292">
        <ele>386</ele>
        <time>2009-01-23T09:31:48Z</time>
      </trkpt>
      <trkpt lat="43.78424" lon="7.26416">
        <ele>381</ele>
        <time>2009-01-23T09:31:48Z</time>
      </trkpt>
      <trkpt lat="43.78464" lon="7.26429">
        <ele>363</ele>
        <time>2009-01-23T09:31:48Z</time>
      </trkpt>
      <trkpt lat="43.78459" lon="7.26487">
        <ele>357</ele>
        <time>2009-01-23T09:31:48Z</time>
      </trkpt>
      <trkpt lat="43.78483" lon="7.26458">
        <ele>351</ele>
        <time>2009-01-23T09:31:48Z</time>
      </trkpt>
      <trkpt lat="43.78485" lon="7.26552">
        <ele>339</ele>
        <time>2009-01-23T09:31:48Z</time>
      </trkpt>
      <trkpt lat="43.78559" lon="7.2662">
        <ele>311</ele>
        <time>2009-01-23T09:31:48Z</time>
      </trkpt>
      <trkpt lat="43.78575" lon="7.26659">
        <ele>310</ele>
        <time>2009-01-23T09:31:48Z</time>
      </trkpt>
      <trkpt lat="43.7855" lon="7.26719">
        <ele>307</ele>
        <time>2009-01-23T09:31:48Z</time>
      </trkpt>
      <trkpt lat="43.78549" lon="7.26775">
        <ele>307</ele>
        <time>2009-01-23T09:31:48Z</time>
      </trkpt>
      <trkpt lat="43.78554" lon="7.26915">
        <ele>320</ele>
        <time>2009-01-23T09:31:48Z</time>
      </trkpt>
      <trkpt lat="43.7852" lon="7.2703">
        <ele>325</ele>
        <time>2009-01-23T09:31:48Z</time>
      </trkpt>
      <trkpt lat="43.78476" lon="7.27104">
        <ele>334</ele>
        <time>2009-01-23T09:31:48Z</time>
      </trkpt>
      <trkpt lat="43.78424" lon="7.27146">
        <ele>336</ele>
        <time>2009-01-23T09:31:48Z</time>
      </trkpt>
      <trkpt lat="43.78413" lon="7.27189">
        <ele>339</ele>
        <time>2009-01-23T09:31:48Z</time>
      </trkpt>
      <trkpt lat="43.78369" lon="7.27365">
        <ele>351</ele>
        <time>2009-01-23T09:31:48Z</time>
      </trkpt>
      <trkpt lat="43.7825" lon="7.27467">
        <ele>340</ele>
        <time>2009-01-23T09:31:48Z</time>
      </trkpt>
      <trkpt lat="43.78092" lon="7.27562">
        <ele>327</ele>
        <time>2009-01-23T09:31:48Z</time>
      </trkpt>
      <trkpt lat="43.77941" lon="7.27565">
        <ele>310</ele>
        <time>2009-01-23T09:31:48Z</time>
      </trkpt>
      <trkpt lat="43.77798" lon="7.2754">
        <ele>286</ele>
        <time>2009-01-23T09:31:48Z</time>
      </trkpt>
      <trkpt lat="43.77688" lon="7.27648">
        <ele>295</ele>
        <time>2009-01-23T09:31:48Z</time>
      </trkpt>
      <trkpt lat="43.77548" lon="7.27707">
        <ele>276</ele>
        <time>2009-01-23T09:31:48Z</time>
      </trkpt>
      <trkpt lat="43.77441" lon="7.27816">
        <ele>267</ele>
        <time>2009-01-23T09:31:48Z</time>
      </trkpt>
      <trkpt lat="43.77382" lon="7.27991">
        <ele>249</ele>
        <time>2009-01-23T09:31:48Z</time>
      </trkpt>
      <trkpt lat="43.77312" lon="7.27985">
        <ele>250</ele>
        <time>2009-01-23T09:31:48Z</time>
      </trkpt>
      <trkpt lat="43.77176" lon="7.2806">
        <ele>250</ele>
        <time>2009-01-23T09:31:48Z</time>
      </trkpt>
      <trkpt lat="43.77068" lon="7.28048">
        <ele>237</ele>
        <time>2009-01-23T09:31:48Z</time>
      </trkpt>
      <trkpt lat="43.76973" lon="7.27922">
        <ele>228</ele>
        <time>2009-01-23T09:31:48Z</time>
      </trkpt>
      <trkpt lat="43.76651" lon="7.28071">
        <ele>229</ele>
        <time>2009-01-23T09:31:48Z</time>
      </trkpt>
      <trkpt lat="43.76509" lon="7.28117">
        <ele>234</ele>
        <time>2009-01-23T09:31:48Z</time>
      </trkpt>
      <trkpt lat="43.76364" lon="7.28226">
        <ele>251</ele>
        <time>2009-01-23T09:31:48Z</time>
      </trkpt>
      <trkpt lat="43.76271" lon="7.28199">
        <ele>221</ele>
        <time>2009-01-23T09:31:48Z</time>
      </trkpt>
      <trkpt lat="43.76186" lon="7.28046">
        <ele>212</ele>
        <time>2009-01-23T09:31:48Z</time>
      </trkpt>
      <trkpt lat="43.76151" lon="7.27978">
        <ele>210</ele>
        <time>2009-01-23T09:31:48Z</time>
      </trkpt>
      <trkpt lat="43.7617" lon="7.27945">
        <ele>209</ele>
        <time>2009-01-23T09:31:48Z</time>
      </trkpt>
      <trkpt lat="43.7621" lon="7.28005">
        <ele>208</ele>
        <time>2009-01-23T09:31:48Z</time>
      </trkpt>
      <trkpt lat="43.76315" lon="7.28073">
        <ele>220</ele>
        <time>2009-01-23T09:31:48Z</time>
      </trkpt>
      <trkpt lat="43.76382" lon="7.28082">
        <ele>221</ele>
        <time>2009-01-23T09:31:48Z</time>
      </trkpt>
      <trkpt lat="43.764" lon="7.28027">
        <ele>228</ele>
        <time>2009-01-23T09:31:48Z</time>
      </trkpt>
      <trkpt lat="43.76542" lon="7.2789">
        <ele>242</ele>
        <time>2009-01-23T09:31:48Z</time>
      </trkpt>
      <trkpt lat="43.76471" lon="7.27912">
        <ele>247</ele>
        <time>2009-01-23T09:31:48Z</time>
      </trkpt>
      <trkpt lat="43.76593" lon="7.27749">
        <ele>277</ele>
        <time>2009-01-23T09:31:48Z</time>
      </trkpt>
      <trkpt lat="43.76761" lon="7.27676">
        <ele>305</ele>
        <time>2009-01-23T09:31:48Z</time>
      </trkpt>
      <trkpt lat="43.76887" lon="7.27675">
        <ele>311</ele>
        <time>2009-01-23T09:31:48Z</time>
      </trkpt>
      <trkpt lat="43.76934" lon="7.27632">
        <ele>327</ele>
        <time>2009-01-23T09:31:48Z</time>
      </trkpt>
      <trkpt lat="43.76974" lon="7.27639">
        <ele>330</ele>
        <time>2009-01-23T09:31:48Z</time>
      </trkpt>
      <trkpt lat="43.77022" lon="7.2769">
        <ele>324</ele>
        <time>2009-01-23T09:31:48Z</time>
      </trkpt>
      <trkpt lat="43.77055" lon="7.27646">
        <ele>335</ele>
        <time>2009-01-23T09:31:48Z</time>
      </trkpt>
      <trkpt lat="43.77214" lon="7.27626">
        <ele>338</ele>
        <time>2009-01-23T09:31:48Z</time>
      </trkpt>
      <trkpt lat="43.77297" lon="7.27565">
        <ele>346</ele>
        <time>2009-01-23T09:31:48Z</time>
      </trkpt>
      <trkpt lat="43.77333" lon="7.27471">
        <ele>362</ele>
        <time>2009-01-23T09:31:48Z</time>
      </trkpt>
      <trkpt lat="43.77326" lon="7.27377">
        <ele>378</ele>
        <time>2009-01-23T09:31:48Z</time>
      </trkpt>
      <trkpt lat="43.77317" lon="7.2729">
        <ele>387</ele>
        <time>2009-01-23T09:31:48Z</time>
      </trkpt>
      <trkpt lat="43.77397" lon="7.2725">
        <ele>378</ele>
        <time>2009-01-23T09:31:48Z</time>
      </trkpt>
      <trkpt lat="43.77361" lon="7.27219">
        <ele>398</ele>
        <time>2009-01-23T09:31:48Z</time>
      </trkpt>
      <trkpt lat="43.77285" lon="7.2725">
        <ele>408</ele>
        <time>2009-01-23T09:31:48Z</time>
      </trkpt>
      <trkpt lat="43.7725" lon="7.27377">
        <ele>409</ele>
        <time>2009-01-23T09:31:48Z</time>
      </trkpt>
      <trkpt lat="43.77034" lon="7.27315">
        <ele>428</ele>
        <time>2009-01-23T09:31:48Z</time>
      </trkpt>
      <trkpt lat="43.77012" lon="7.27301">
        <ele>432</ele>
        <time>2009-01-23T09:31:48Z</time>
      </trkpt>
      <trkpt lat="43.76952" lon="7.27295">
        <ele>440</ele>
        <time>2009-01-23T09:31:48Z</time>
      </trkpt>
      <trkpt lat="43.7685" lon="7.27314">
        <ele>453</ele>
        <time>2009-01-23T09:31:48Z</time>
      </trkpt>
      <trkpt lat="43.76695" lon="7.27341">
        <ele>456</ele>
        <time>2009-01-23T09:31:48Z</time>
      </trkpt>
      <trkpt lat="43.76665" lon="7.27317">
        <ele>467</ele>
        <time>2009-01-23T09:31:48Z</time>
      </trkpt>
      <trkpt lat="43.76568" lon="7.27312">
        <ele>482</ele>
        <time>2009-01-23T09:31:48Z</time>
      </trkpt>
      <trkpt lat="43.76559" lon="7.27159">
        <ele>505</ele>
        <time>2009-01-23T09:31:48Z</time>
      </trkpt>
      <trkpt lat="43.76626" lon="7.27022">
        <ele>510</ele>
        <time>2009-01-23T09:31:48Z</time>
      </trkpt>
      <trkpt lat="43.76554" lon="7.26931">
        <ele>498</ele>
        <time>2009-01-23T09:31:48Z</time>
      </trkpt>
      <trkpt lat="43.7657" lon="7.26771">
        <ele>515</ele>
        <time>2009-01-23T09:31:48Z</time>
      </trkpt>
      <trkpt lat="43.76552" lon="7.26726">
        <ele>509</ele>
        <time>2009-01-23T09:31:48Z</time>
      </trkpt>
      <trkpt lat="43.76553" lon="7.26605">
        <ele>508</ele>
        <time>2009-01-23T09:31:48Z</time>
      </trkpt>
      <trkpt lat="43.765" lon="7.26479">
        <ele>503</ele>
        <time>2009-01-23T09:31:48Z</time>
      </trkpt>
      <trkpt lat="43.76531" lon="7.26404">
        <ele>512</ele>
        <time>2009-01-23T09:31:48Z</time>
      </trkpt>
      <trkpt lat="43.76647" lon="7.2633">
        <ele>526</ele>
        <time>2009-01-23T09:31:48Z</time>
      </trkpt>
      <trkpt lat="43.76758" lon="7.26207">
        <ele>538</ele>
        <time>2009-01-23T09:31:48Z</time>
      </trkpt>
      <trkpt lat="43.76658" lon="7.26039">
        <ele>533</ele>
        <time>2009-01-23T09:31:48Z</time>
      </trkpt>
      <trkpt lat="43.76844" lon="7.26195">
        <ele>576</ele>
        <time>2009-01-23T09:31:48Z</time>
      </trkpt>
      <trkpt lat="43.76737" lon="7.26469">
        <ele>596</ele>
        <time>2009-01-23T09:31:48Z</time>
      </trkpt>
      <trkpt lat="43.76916" lon="7.26248">
        <ele>621</ele>
        <time>2009-01-23T09:31:48Z</time>
      </trkpt>
      <trkpt lat="43.76944" lon="7.26176">
        <ele>620</ele>
        <time>2009-01-23T09:31:48Z</time>
      </trkpt>
      <trkpt lat="43.76937" lon="7.26138">
        <ele>617</ele>
        <time>2009-01-23T09:31:48Z</time>
      </trkpt>
      <trkpt lat="43.76967" lon="7.26172">
        <ele>630</ele>
        <time>2009-01-23T09:31:48Z</time>
      </trkpt>
      <trkpt lat="43.76841" lon="7.26552">
        <ele>647</ele>
        <time>2009-01-23T09:31:48Z</time>
      </trkpt>
      <trkpt lat="43.76845" lon="7.26578">
        <ele>649</ele>
        <time>2009-01-23T09:31:48Z</time>
      </trkpt>
      <trkpt lat="43.77057" lon="7.26267">
        <ele>687</ele>
        <time>2009-01-23T09:31:48Z</time>
      </trkpt>
      <trkpt lat="43.77191" lon="7.26104">
        <ele>703</ele>
        <time>2009-01-23T09:31:48Z</time>
      </trkpt>
      <trkpt lat="43.77247" lon="7.25997">
        <ele>716</ele>
        <time>2009-01-23T09:31:48Z</time>
      </trkpt>
      <trkpt lat="43.77234" lon="7.25943">
        <ele>708</ele>
        <time>2009-01-23T09:31:48Z</time>
      </trkpt>
      <trkpt lat="43.77163" lon="7.25909">
        <ele>703</ele>
        <time>2009-01-23T09:31:48Z</time>
      </trkpt>
      <trkpt lat="43.7698" lon="7.25927">
        <ele>704</ele>
        <time>2009-01-23T09:31:48Z</time>
      </trkpt>
      <trkpt lat="43.76896" lon="7.25755">
        <ele>729</ele>
        <time>2009-01-23T09:31:48Z</time>
      </trkpt>
      <trkpt lat="43.7684" lon="7.25645">
        <ele>741</ele>
        <time>2009-01-23T09:31:48Z</time>
      </trkpt>
      <trkpt lat="43.7684" lon="7.25636">
        <ele>743</ele>
        <time>2009-01-23T09:31:48Z</time>
      </trkpt>
      <trkpt lat="43.76833" lon="7.25595">
        <ele>749</ele>
        <time>2009-01-23T09:31:48Z</time>
      </trkpt>
      <trkpt lat="43.76832" lon="7.25517">
        <ele>757</ele>
        <time>2009-01-23T09:31:48Z</time>
      </trkpt>
      <trkpt lat="43.76877" lon="7.25331">
        <ele>750</ele>
        <time>2009-01-23T09:31:48Z</time>
      </trkpt>
      <trkpt lat="43.76919" lon="7.25251">
        <ele>752</ele>
        <time>2009-01-23T09:31:48Z</time>
      </trkpt>
      <trkpt lat="43.76944" lon="7.25135">
        <ele>726</ele>
        <time>2009-01-23T09:31:48Z</time>
      </trkpt>
      <trkpt lat="43.76974" lon="7.25082">
        <ele>717</ele>
        <time>2009-01-23T09:31:48Z</time>
      </trkpt>
      <trkpt lat="43.76887" lon="7.25199">
        <ele>710</ele>
        <time>2009-01-23T09:31:48Z</time>
      </trkpt>
      <trkpt lat="43.76896" lon="7.25013">
        <ele>684</ele>
        <time>2009-01-23T09:31:48Z</time>
      </trkpt>
      <trkpt lat="43.77046" lon="7.24967">
        <ele>691</ele>
        <time>2009-01-23T09:31:48Z</time>
      </trkpt>
      <trkpt lat="43.77104" lon="7.24997">
        <ele>698</ele>
        <time>2009-01-23T09:31:48Z</time>
      </trkpt>
      <trkpt lat="43.77548" lon="7.2492">
        <ele>677</ele>
        <time>2009-01-23T09:31:48Z</time>
      </trkpt>
      <trkpt lat="43.77673" lon="7.24897">
        <ele>670</ele>
        <time>2009-01-23T09:31:48Z</time>
      </trkpt>
      <trkpt lat="43.77722" lon="7.24923">
        <ele>681</ele>
        <time>2009-01-23T09:31:48Z</time>
      </trkpt>
      <trkpt lat="43.77805" lon="7.24865">
        <ele>650</ele>
        <time>2009-01-23T09:31:48Z</time>
      </trkpt>
      <trkpt lat="43.77841" lon="7.24865">
        <ele>639</ele>
        <time>2009-01-23T09:31:48Z</time>
      </trkpt>
      <trkpt lat="43.77919" lon="7.24797">
        <ele>608</ele>
        <time>2009-01-23T09:31:48Z</time>
      </trkpt>
      <trkpt lat="43.77935" lon="7.24823">
        <ele>606</ele>
        <time>2009-01-23T09:31:48Z</time>
      </trkpt>
      <trkpt lat="43.77966" lon="7.24791">
        <ele>595</ele>
        <time>2009-01-23T09:31:48Z</time>
      </trkpt>
      <trkpt lat="43.77976" lon="7.24823">
        <ele>596</ele>
        <time>2009-01-23T09:31:48Z</time>
      </trkpt>
      <trkpt lat="43.78059" lon="7.24827">
        <ele>575</ele>
        <time>2009-01-23T09:31:48Z</time>
      </trkpt>
      <trkpt lat="43.78092" lon="7.2479">
        <ele>559</ele>
        <time>2009-01-23T09:31:48Z</time>
      </trkpt>
      <trkpt lat="43.78106" lon="7.24744">
        <ele>551</ele>
        <time>2009-01-23T09:31:48Z</time>
      </trkpt>
      <trkpt lat="43.78101" lon="7.24844">
        <ele>566</ele>
        <time>2009-01-23T09:31:48Z</time>
      </trkpt>
      <trkpt lat="43.78207" lon="7.24943">
        <ele>536</ele>
        <time>2009-01-23T09:31:48Z</time>
      </trkpt>
      <trkpt lat="43.78219" lon="7.25028">
        <ele>525</ele>
        <time>2009-01-23T09:31:48Z</time>
      </trkpt>
      <trkpt lat="43.78217" lon="7.25124">
        <ele>530</ele>
        <time>2009-01-23T09:31:48Z</time>
      </trkpt>
      <trkpt lat="43.78289" lon="7.24972">
        <ele>517</ele>
        <time>2009-01-23T09:31:48Z</time>
      </trkpt>
      <trkpt lat="43.78315" lon="7.24741">
        <ele>496</ele>
        <time>2009-01-23T09:31:48Z</time>
      </trkpt>
      <trkpt lat="43.78343" lon="7.24731">
        <ele>507</ele>
        <time>2009-01-23T09:31:48Z</time>
      </trkpt>
      <trkpt lat="43.78369" lon="7.24652">
        <ele>506</ele>
        <time>2009-01-23T09:31:48Z</time>
      </trkpt>
      <trkpt lat="43.78444" lon="7.24534">
        <ele>508</ele>
        <time>2009-01-23T09:31:48Z</time>
      </trkpt>
      <trkpt lat="43.78483" lon="7.24457">
        <ele>509</ele>
        <time>2009-01-23T09:31:48Z</time>
      </trkpt>
      <trkpt lat="43.78482" lon="7.24447">
        <ele>508</ele>
        <time>2009-01-23T09:31:48Z</time>
      </trkpt>
    </trkseg>
  </trk>
</gpx>